CW8998 Weather Reports


Display with metric or nautical units.
time (UTC)temp
F
wind
direction
speed
MPH
gust
MPH
rain 1hr
in
rain 24hr
in
rain mn
in
humidity
%
barometer
mb
20260508050040 45 165 1.0 3.0 0.00 0.00 0.00 59 1008.1
20260508045528 45 0 0.0 3.0 0.00 0.00 0.00 59 1008.1
20260508045028 45 152 0.0 4.0 0.00 0.00 0.00 61 1008.2
20260508044553 45 166 1.0 4.0 0.00 0.00 0.00 60 1008.2
20260508044102 45 163 0.0 4.0 0.00 0.00 0.00 57 1008.3
20260508043528 45 173 1.0 4.0 0.00 0.00 0.00 56 1008.3
20260508043046 46 180 1.0 4.0 0.00 0.00 0.00 55 1008.4
20260508042528 46 0 1.0 3.0 0.00 0.00 0.00 55 1008.4
20260508042027 46 0 1.0 5.0 0.00 0.00 0.00 55 1008.5
20260508041542 46 191 2.0 5.0 0.00 0.00 0.00 54 1008.4
20260508041027 45 190 1.0 4.0 0.00 0.00 0.00 55 1008.5
20260508040528 45 0 0.0 2.0 0.00 0.00 0.00 58 1008.5
20260508040042 44 176 0.0 2.0 0.00 0.00 0.00 66 1008.5
20260508035528 45 0 0.0 3.0 0.00 0.00 0.00 67 1008.6
20260508035028 45 188 0.0 3.0 0.00 0.00 0.00 67 1008.6
20260508034552 45 182 1.0 4.0 0.00 0.00 0.00 65 1008.6
20260508034027 46 176 1.0 4.0 0.00 0.00 0.00 63 1008.6
20260508033531 46 173 0.0 2.0 0.00 0.00 0.00 60 1008.6
20260508033044 46 171 0.0 3.0 0.00 0.00 0.00 59 1008.6
20260508032528 46 0 0.0 4.0 0.00 0.00 0.00 61 1008.7
20260508032028 46 166 1.0 4.0 0.00 0.00 0.00 61 1008.7
20260508031542 47 196 1.0 3.0 0.00 0.00 0.00 61 1008.7
20260508031027 47 169 1.0 4.0 0.00 0.00 0.00 61 1008.7
20260508030527 47 173 1.0 4.0 0.00 0.00 0.00 62 1008.6
20260508030045 48 0 1.0 4.0 0.00 0.00 0.00 61 1008.7
20260508025527 48 194 1.0 4.0 0.00 0.00 0.00 61 1008.7
20260508025027 49 184 1.0 4.0 0.00 0.00 0.00 58 1008.7
20260508024544 49 188 2.0 3.0 0.00 0.00 0.00 56 1008.6
20260508024027 49 182 1.0 3.0 0.00 0.00 0.00 51 1008.7
20260508023528 50 185 1.0 3.0 0.00 0.00 0.00 45 1008.7
20260508023037 50 89 0.0 2.0 0.00 0.00 0.00 40 1008.6
20260508022528 51 0 0.0 1.0 0.00 0.00 0.00 38 1008.6
20260508022028 51 0 0.0 1.0 0.00 0.00 0.00 38 1008.5
20260508021542 51 0 0.0 1.0 0.00 0.00 0.00 37 1008.6
20260508021027 52 0 0.0 3.0 0.00 0.00 0.00 37 1008.5
20260508020527 53 0 0.0 4.0 0.00 0.00 0.00 35 1008.5
20260508020046 53 42 1.0 4.0 0.00 0.00 0.00 34 1008.3
20260508015528 54 284 2.0 4.0 0.00 0.00 0.00 33 1008.3
20260508015027 54 0 1.0 3.0 0.00 0.00 0.00 33 1008.2
20260508014542 54 274 1.0 4.0 0.00 0.00 0.00 32 1008.2
20260508014028 55 272 0.0 6.0 0.00 0.00 0.00 32 1008.2
20260508013617 55 278 1.0 7.0 0.00 0.00 0.00 32 1008.1
20260508013042 55 5 2.0 7.0 0.00 0.00 0.00 31 1008.2
20260508012528 55 275 2.0 7.0 0.00 0.00 0.00 31 1008.2
20260508012028 56 294 2.0 5.0 0.00 0.00 0.00 30 1008.2
20260508011545 56 287 1.0 5.0 0.00 0.00 0.00 30 1008.2
20260508011028 56 270 2.0 6.0 0.00 0.00 0.00 30 1008.1
20260508010528 56 276 3.0 9.0 0.00 0.00 0.00 30 1008.1
20260508010043 57 269 3.0 9.0 0.00 0.00 0.00 29 1008.1
20260508005532 57 295 4.0 9.0 0.00 0.00 0.00 29 1008.2
20260508005028 57 286 3.0 9.0 0.00 0.00 0.00 29 1008.1
20260508004547 57 308 4.0 9.0 0.00 0.00 0.00 28 1008.2
20260508004027 58 268 1.0 10.0 0.00 0.00 0.00 28 1008.1
20260508003527 57 267 3.0 13.0 0.00 0.00 0.00 28 1008.2
20260508003041 58 296 7.0 13.0 0.00 0.00 0.00 27 1008.2
20260508002528 58 306 4.0 15.0 0.00 0.00 0.00 28 1008.2
20260508002027 58 61 6.0 15.0 0.00 0.00 0.00 27 1008.1
20260508001539 58 288 7.0 15.0 0.00 0.00 0.00 27 1008.1
20260508001028 58 307 4.0 13.0 0.00 0.00 0.00 27 1008.1
20260508000528 58 267 6.0 13.0 0.00 0.00 0.00 27 1008.1
20260508000038 58 303 3.0 11.0 0.00 0.00 0.00 27 1008.2
20260507235527 58 284 4.0 14.0 0.00 0.00 0.00 27 1008.2
20260507235028 58 294 8.0 14.0 0.00 0.00 0.00 27 1008.3
20260507234549 58 284 5.0 14.0 0.00 0.00 0.00 27 1008.2
20260507234027 58 212 7.0 13.0 0.00 0.00 0.00 27 1008.4
20260507233529 59 307 6.0 12.0 0.00 0.00 0.00 27 1008.3
20260507233043 59 325 4.0 11.0 0.00 0.00 0.00 27 1008.3
20260507232529 59 302 4.0 11.0 0.00 0.00 0.00 27 1008.3
20260507232027 59 304 3.0 15.0 0.00 0.00 0.00 27 1008.3
20260507231548 59 300 5.0 15.0 0.00 0.00 0.00 27 1008.4
20260507231030 59 275 3.0 11.0 0.00 0.00 0.00 28 1008.4
20260507230528 58 286 4.0 12.0 0.00 0.00 0.00 27 1008.4
20260507230043 58 318 5.0 12.0 0.00 0.00 0.00 28 1008.5
20260507225528 58 279 5.0 12.0 0.00 0.00 0.00 28 1008.5
20260507225025 57 328 4.0 13.0 0.00 0.00 0.00 28 1008.6
20260507224538 58 294 8.0 17.0 0.00 0.00 0.00 27 1008.5
20260507224028 58 293 6.0 17.0 0.00 0.00 0.00 27 1008.5
20260507223528 59 251 5.0 16.0 0.00 0.00 0.00 28 1008.6
20260507223037 59 290 5.0 16.0 0.00 0.00 0.00 27 1008.5
20260507222527 58 315 6.0 14.0 0.00 0.00 0.00 28 1008.6
20260507222027 57 307 6.0 16.0 0.00 0.00 0.00 28 1008.7
20260507221545 57 315 7.0 18.0 0.00 0.00 0.00 28 1008.7
20260507221029 57 284 10.0 20.0 0.00 0.00 0.00 28 1008.8
20260507220527 58 296 8.0 20.0 0.00 0.00 0.00 28 1008.8
20260507220041 58 258 8.0 15.0 0.00 0.00 0.00 27 1008.7
20260507215528 58 301 7.0 13.0 0.00 0.00 0.00 27 1008.8
20260507215027 59 273 3.0 11.0 0.00 0.00 0.00 27 1009.0
20260507214541 58 279 2.0 15.0 0.00 0.00 0.00 28 1008.9
20260507214027 57 337 5.0 15.0 0.00 0.00 0.00 28 1008.9
20260507213528 59 259 6.0 15.0 0.00 0.00 0.00 27 1009.1
20260507213040 58 191 4.0 14.0 0.00 0.00 0.00 28 1009.0
20260507212527 58 316 7.0 14.0 0.00 0.00 0.00 27 1009.2
20260507212029 58 252 5.0 16.0 0.00 0.00 0.00 28 1009.1
20260507211536 58 279 5.0 16.0 0.00 0.00 0.00 29 1009.1
20260507211027 57 286 7.0 14.0 0.00 0.00 0.00 28 1009.2
20260507210529 58 275 7.0 14.0 0.00 0.00 0.00 27 1009.2
20260507210043 58 18 5.0 13.0 0.00 0.00 0.00 27 1009.3
20260507205528 58 316 6.0 13.0 0.00 0.00 0.00 28 1009.3
20260507205027 59 261 4.0 12.0 0.00 0.00 0.00 26 1009.3
20260507204540 60 285 4.0 11.0 0.00 0.00 0.00 26 1009.4
20260507204027 59 283 3.0 11.0 0.00 0.00 0.00 28 1009.4
20260507203527 57 302 5.0 13.0 0.00 0.00 0.00 28 1009.3
20260507203047 57 290 5.0 13.0 0.00 0.00 0.00 29 1009.5
20260507202527 57 308 4.0 12.0 0.00 0.00 0.00 28 1009.5
20260507202027 56 303 3.0 12.0 0.00 0.00 0.00 29 1009.6
20260507201541 56 287 6.0 11.0 0.00 0.00 0.00 28 1009.8
20260507201027 56 293 5.0 13.0 0.00 0.00 0.00 29 1009.7
20260507200527 56 288 7.0 14.0 0.00 0.00 0.00 28 1009.9
20260507200045 56 281 6.0 14.0 0.00 0.00 0.00 28 1010.0
20260507195528 56 12 5.0 12.0 0.00 0.00 0.00 30 1009.8
20260507195028 56 293 6.0 12.0 0.00 0.00 0.00 28 1010.0
20260507194542 57 292 4.0 13.0 0.00 0.00 0.00 27 1010.1
20260507194027 57 290 4.0 13.0 0.00 0.00 0.00 28 1010.1
20260507193527 57 330 6.0 13.0 0.00 0.00 0.00 28 1010.1
20260507193041 55 236 6.0 12.0 0.00 0.00 0.00 30 1010.2
20260507192529 56 228 4.0 12.0 0.00 0.00 0.00 28 1010.1
20260507192027 55 301 6.0 19.0 0.00 0.00 0.00 29 1010.1
20260507191539 56 309 5.0 19.0 0.00 0.00 0.00 29 1010.2
20260507191027 56 288 5.0 15.0 0.00 0.00 0.00 28 1010.2
20260507190528 55 329 6.0 14.0 0.00 0.00 0.00 28 1010.1
20260507190039 54 308 4.0 13.0 0.00 0.00 0.00 29 1010.1
20260507185531 54 325 8.0 13.0 0.00 0.00 0.00 28 1010.2
20260507185027 55 269 2.0 16.0 0.00 0.00 0.00 29 1010.3
20260507184544 54 0 4.0 16.0 0.00 0.00 0.00 28 1010.3
20260507184026 55 292 6.0 16.0 0.00 0.00 0.00 28 1010.5
20260507183527 55 302 5.0 12.0 0.00 0.00 0.00 27 1010.5
20260507183045 56 216 3.0 12.0 0.00 0.00 0.00 28 1010.5
20260507182528 54 221 5.0 12.0 0.00 0.00 0.00 28 1010.5
20260507182027 55 277 4.0 10.0 0.00 0.00 0.00 28 1010.6
20260507181541 55 233 3.0 14.0 0.00 0.00 0.00 28 1010.5
20260507181028 54 288 5.0 14.0 0.00 0.00 0.00 27 1010.6
20260507180527 54 306 5.0 15.0 0.00 0.00 0.00 29 1010.7
20260507180043 54 255 5.0 16.0 0.00 0.00 0.00 28 1010.7
20260507175527 54 265 6.0 16.0 0.00 0.00 0.00 28 1011.0
20260507175027 54 239 7.0 14.0 0.00 0.00 0.00 27 1011.0
20260507174544 54 267 3.0 11.0 0.00 0.00 0.00 28 1010.8
20260507174027 54 317 6.0 13.0 0.00 0.00 0.00 27 1011.1
20260507173527 55 330 5.0 13.0 0.00 0.00 0.00 27 1011.1
20260507173048 54 272 2.0 13.0 0.00 0.00 0.00 27 1011.2
20260507172526 54 274 4.0 14.0 0.00 0.00 0.00 28 1011.3
20260507172026 54 246 6.0 14.0 0.00 0.00 0.00 29 1011.2
20260507171603 53 39 4.0 13.0 0.00 0.00 0.00 28 1011.2
20260507171027 53 292 3.0 14.0 0.00 0.00 0.00 30 1011.4
20260507170527 52 259 9.0 14.0 0.00 0.00 0.00 28 1011.5
20260507170042 53 304 3.0 8.0 0.00 0.00 0.00 29 1011.4
20260507165527 54 171 3.0 12.0 0.00 0.00 0.00 28 1011.3
20260507165029 53 294 6.0 12.0 0.00 0.00 0.00 28 1011.5
20260507164558 52 263 4.0 12.0 0.00 0.00 0.00 30 1011.4
20260507164028 51 284 3.0 14.0 0.00 0.00 0.00 30 1011.6
20260507163529 51 252 7.0 14.0 0.00 0.00 0.00 29 1011.6
20260507163041 51 242 4.0 11.0 0.00 0.00 0.00 30 1011.5
20260507162527 52 244 5.0 11.0 0.00 0.00 0.00 31 1011.6
20260507162027 51 247 3.0 13.0 0.00 0.00 0.00 33 1011.7
20260507161544 51 313 4.0 13.0 0.00 0.00 0.00 33 1011.8
20260507161047 51 322 3.0 10.0 0.00 0.00 0.00 32 1011.8
20260507160527 50 313 5.0 10.0 0.00 0.00 0.00 32 1011.8
20260507160045 51 261 2.0 7.0 0.00 0.00 0.00 34 1011.9
20260507155528 51 192 1.0 7.0 0.00 0.00 0.00 35 1011.9
20260507155027 51 277 3.0 10.0 0.00 0.00 0.00 35 1012.0
20260507154542 51 177 3.0 10.0 0.00 0.00 0.00 35 1011.9
20260507154028 49 0 2.0 9.0 0.00 0.00 0.00 36 1012.0
20260507153527 50 302 4.0 9.0 0.00 0.00 0.00 37 1012.0
20260507153044 49 267 3.0 8.0 0.00 0.00 0.00 37 1011.9
20260507152527 49 200 3.0 8.0 0.00 0.00 0.00 36 1011.9
20260507152027 49 187 2.0 9.0 0.00 0.00 0.00 37 1011.9
20260507151541 49 277 3.0 9.0 0.00 0.00 0.00 37 1012.0
20260507151027 49 200 1.0 8.0 0.00 0.00 0.00 39 1011.9
20260507150527 48 273 3.0 8.0 0.00 0.00 0.00 41 1011.9
20260507150042 48 206 2.0 8.0 0.00 0.00 0.00 40 1011.9
20260507145527 47 242 2.0 7.0 0.00 0.00 0.00 42 1011.9
20260507145026 48 110 2.0 7.0 0.00 0.00 0.00 40 1011.9
20260507144541 47 196 1.0 7.0 0.00 0.00 0.00 44 1011.9
20260507144029 46 129 3.0 9.0 0.00 0.00 0.00 44 1011.8
20260507143528 46 192 2.0 9.0 0.00 0.00 0.00 43 1011.9
20260507143045 46 162 3.0 10.0 0.00 0.00 0.00 43 1011.9
20260507142527 46 212 4.0 10.0 0.00 0.00 0.00 44 1012.1
20260507142028 46 158 2.0 9.0 0.00 0.00 0.00 44 1012.0
20260507141542 45 201 2.0 9.0 0.00 0.00 0.00 48 1012.1
20260507141027 45 185 2.0 7.0 0.00 0.00 0.00 46 1012.1
20260507140527 45 235 2.0 7.0 0.00 0.00 0.00 47 1012.0
20260507140037 44 217 2.0 5.0 0.00 0.00 0.00 48 1012.1
20260507135527 44 171 2.0 6.0 0.00 0.00 0.00 48 1012.1
20260507135029 43 0 2.0 6.0 0.00 0.00 0.00 52 1012.0
20260507134551 43 192 1.0 6.0 0.00 0.00 0.00 53 1012.2
20260507134026 42 251 2.0 6.0 0.00 0.00 0.00 53 1012.1
20260507133529 42 175 1.0 6.0 0.00 0.00 0.00 54 1012.2
20260507133042 42 236 2.0 6.0 0.00 0.00 0.00 56 1012.2
20260507132528 42 178 1.0 5.0 0.00 0.00 0.00 58 1012.1
20260507132028 41 200 1.0 5.0 0.00 0.00 0.00 61 1012.2
20260507131541 40 0 0.0 3.0 0.00 0.00 0.00 63 1012.1
20260507131027 40 209 1.0 5.0 0.00 0.00 0.00 66 1012.2
20260507130527 39 151 1.0 6.0 0.00 0.00 0.00 66 1012.1
20260507130042 39 200 1.0 6.0 0.00 0.00 0.00 68 1012.2
20260507125528 38 179 0.0 4.0 0.00 0.00 0.00 70 1012.2
20260507125030 38 219 1.0 5.0 0.00 0.00 0.00 70 1012.3
20260507124536 37 211 1.0 5.0 0.00 0.00 0.00 71 1012.3
20260507124029 36 219 2.0 5.0 0.00 0.00 0.00 72 1012.3
20260507123529 36 252 1.0 4.0 0.00 0.00 0.00 74 1012.3
20260507123038 35 197 1.0 6.0 0.00 0.00 0.00 75 1012.4
20260507122529 34 0 2.0 6.0 0.00 0.00 0.00 75 1012.4
20260507122028 33 181 1.0 5.0 0.00 0.00 0.00 75 1012.4
20260507121542 33 168 2.0 5.0 0.00 0.00 0.00 77 1012.3
20260507121030 32 167 2.0 4.0 0.00 0.00 0.00 80 1012.3
20260507120528 32 180 1.0 3.0 0.00 0.00 0.00 81 1012.3
20260507120040 31 173 1.0 4.0 0.00 0.00 0.00 81 1012.3
20260507115527 31 174 1.0 4.0 0.00 0.00 0.00 81 1012.3
20260507115028 30 175 0.0 3.0 0.00 0.00 0.00 82 1012.3
20260507114538 30 0 0.0 2.0 0.00 0.00 0.00 82 1012.3
20260507114027 30 0 0.0 2.0 0.00 0.00 0.00 82 1012.2
20260507113526 30 174 0.0 2.0 0.00 0.00 0.00 83 1012.3
20260507113036 29 0 0.0 2.0 0.00 0.00 0.00 83 1012.3
20260507112527 29 0 0.0 2.0 0.00 0.00 0.00 83 1012.3
20260507112027 29 0 0.0 2.0 0.00 0.00 0.00 83 1012.3
20260507111542 30 0 0.0 2.0 0.00 0.00 0.00 82 1012.3
20260507111028 30 175 0.0 2.0 0.00 0.00 0.00 81 1012.3
20260507110527 30 0 0.0 1.0 0.00 0.00 0.00 80 1012.3
20260507110053 30 0 0.0 1.0 0.00 0.00 0.00 79 1012.3
20260507105528 30 0 0.0 1.0 0.00 0.00 0.00 80 1012.3
20260507105027 30 0 0.0 1.0 0.00 0.00 0.00 82 1012.4
20260507104540 30 175 0.0 2.0 0.00 0.00 0.00 82 1012.3
20260507104028 30 0 0.0 2.0 0.00 0.00 0.00 81 1012.3
20260507103528 30 0 0.0 2.0 0.00 0.00 0.00 80 1012.3
20260507103038 30 175 0.0 2.0 0.00 0.00 0.00 79 1012.4
20260507102527 30 0 0.0 2.0 0.00 0.00 0.00 77 1012.3
20260507102027 30 0 0.0 2.0 0.00 0.00 0.00 75 1012.3
20260507101542 31 175 0.0 1.0 0.00 0.00 0.00 73 1012.3
20260507101028 31 0 0.0 1.0 0.00 0.00 0.00 73 1012.4
20260507100527 31 0 0.0 1.0 0.00 0.00 0.00 74 1012.4
20260507100045 31 0 0.0 1.0 0.00 0.00 0.00 74 1012.4
20260507095527 31 0 0.0 2.0 0.00 0.00 0.00 74 1012.5
20260507095028 31 0 0.0 2.0 0.00 0.00 0.00 75 1012.5
20260507094541 31 0 0.0 2.0 0.00 0.00 0.00 75 1012.5
20260507094026 31 0 0.0 2.0 0.00 0.00 0.00 75 1012.6
20260507093528 31 175 0.0 2.0 0.00 0.00 0.00 76 1012.7
20260507093040 30 175 0.0 2.0 0.00 0.00 0.00 77 1012.6
20260507092531 30 0 0.0 2.0 0.00 0.00 0.00 77 1012.5
20260507092028 30 0 0.0 2.0 0.00 0.00 0.00 77 1012.5
20260507091604 30 0 0.0 2.0 0.00 0.00 0.00 77 1012.5
20260507091030 30 175 0.0 3.0 0.00 0.00 0.00 77 1012.5
20260507090529 30 175 0.0 3.0 0.00 0.00 0.00 77 1012.5
20260507090046 30 0 0.0 3.0 0.00 0.00 0.00 76 1012.5
20260507085529 30 170 1.0 3.0 0.00 0.00 0.00 76 1012.5
20260507085029 31 202 0.0 2.0 0.00 0.00 0.00 76 1012.5
20260507084543 30 205 0.0 2.0 0.00 0.00 0.00 78 1012.5
20260507084028 30 0 0.0 2.0 0.00 0.00 0.00 79 1012.5
20260507083529 30 0 0.0 2.0 0.00 0.00 0.00 79 1012.5
20260507083041 30 173 0.0 2.0 0.00 0.00 0.00 79 1012.4
20260507082528 30 0 0.0 2.0 0.00 0.00 0.00 79 1012.5
20260507082028 30 0 0.0 1.0 0.00 0.00 0.00 79 1012.6
20260507081543 31 173 0.0 2.0 0.00 0.00 0.00 78 1012.6
20260507081028 31 173 0.0 2.0 0.00 0.00 0.00 78 1012.6
20260507080528 31 173 0.0 2.0 0.00 0.00 0.00 78 1012.6
20260507080040 31 0 0.0 1.0 0.00 0.00 0.00 78 1012.6
20260507075528 31 0 0.0 2.0 0.00 0.00 0.00 77 1012.6
20260507075029 31 173 0.0 2.0 0.00 0.00 0.00 76 1012.7
20260507074543 31 173 0.0 2.0 0.00 0.00 0.00 74 1012.6
20260507074028 32 0 0.0 2.0 0.00 0.00 0.00 74 1012.7
20260507073529 32 0 1.0 2.0 0.00 0.00 0.00 74 1012.7
20260507073043 32 184 0.0 2.0 0.00 0.00 0.00 74 1012.8
20260507072529 32 184 0.0 2.0 0.00 0.00 0.00 73 1012.8
20260507072031 32 184 0.0 3.0 0.00 0.00 0.00 72 1012.9
20260507071543 33 184 1.0 3.0 0.00 0.00 0.00 71 1012.9
20260507071029 33 0 1.0 3.0 0.00 0.00 0.00 70 1012.8
20260507070529 33 0 0.0 2.0 0.00 0.00 0.00 69 1012.8
20260507070056 34 175 1.0 2.0 0.00 0.00 0.00 69 1012.8
20260507065528 34 195 1.0 2.0 0.00 0.00 0.00 69 1012.8
20260507065028 34 202 1.0 2.0 0.00 0.00 0.00 70 1012.9
20260507064541 34 196 0.0 2.0 0.00 0.00 0.00 72 1012.8
20260507064030 34 0 0.0 2.0 0.00 0.00 0.00 73 1012.8
20260507063528 33 0 0.0 2.0 0.00 0.00 0.00 73 1012.8
20260507063040 33 0 0.0 1.0 0.00 0.00 0.00 73 1012.8
20260507062529 33 0 0.0 2.0 0.00 0.00 0.00 71 1012.9
20260507062031 34 0 0.0 2.0 0.00 0.00 0.00 71 1013.1
20260507061538 34 174 0.0 2.0 0.00 0.00 0.00 70 1013.2
20260507061026 34 0 0.0 3.0 0.00 0.00 0.00 69 1013.2
20260507060527 34 173 0.0 3.0 0.00 0.00 0.00 68 1013.3
20260507060044 34 179 0.0 3.0 0.00 0.00 0.00 68 1013.4
20260507055527 34 191 1.0 3.0 0.00 0.00 0.00 67 1013.5
20260507055028 35 205 1.0 3.0 0.00 0.00 0.00 66 1013.5
20260507054547 35 184 0.0 3.0 0.00 0.00 0.00 66 1013.5
20260507054029 35 187 1.0 2.0 0.00 0.00 0.00 65 1013.5
20260507053530 35 0 0.0 2.0 0.00 0.00 0.00 65 1013.6
20260507053048 36 190 0.0 2.0 0.00 0.00 0.00 64 1013.6
20260507052528 36 0 0.0 2.0 0.00 0.00 0.00 64 1013.6
20260507052029 36 244 0.0 2.0 0.00 0.00 0.00 64 1013.7
20260507051542 37 212 0.0 3.0 0.00 0.00 0.00 64 1013.6
20260507051028 37 193 1.0 3.0 0.00 0.00 0.00 64 1013.7
20260507050527 37 0 0.0 2.0 0.00 0.00 0.00 62 1013.8